FW7205 Weather Reports


time (UTC)temp
C
wind
direction
speed
KPH
gust
KPH
rain 1hr
cm
rain 24hr
cm
rain mn
cm
humidity
%
barometer
mb
20260504021558 21 0 0.0 0.0 0.00 0.00 0.00 59 1016.6
20260504020128 21 0 0.0 0.0 0.00 0.00 0.00 59 1016.6
20260504014604 21 0 0.0 1.6 0.00 0.00 0.00 59 1016.4
20260504013105 22 0 0.0 0.0 0.00 0.00 0.00 58 1016.4
20260504011554 22 0 0.0 0.0 0.00 0.00 0.00 57 1016.3
20260504010057 22 0 0.0 3.2 0.00 0.00 0.00 55 1016.3
20260504004628 23 0 0.0 0.0 0.00 0.00 0.00 54 1016.4
20260504003100 23 0 0.0 0.0 0.00 0.00 0.00 51 1016.4
20260504001621 23 0 0.0 1.6 0.00 0.00 0.00 50 1016.4
20260504000105 23 0 0.0 1.6 0.00 0.00 0.00 48 1016.7
20260503234605 24 0 0.0 3.2 0.00 0.00 0.00 46 1016.8
20260503233103 23 0 0.0 4.8 0.00 0.00 0.00 45 1016.7
20260503231555 24 0 0.0 3.2 0.00 0.00 0.00 47 1017.1
20260503230111 25 100 0.0 4.8 0.00 0.00 0.00 45 1016.9
20260503224606 25 360 0.0 4.8 0.00 0.00 0.00 44 1016.9
20260503223057 25 99 1.6 4.8 0.00 0.00 0.00 44 1017.1
20260503221604 25 211 0.0 4.8 0.00 0.00 0.00 43 1017.3
20260503220054 25 0 0.0 6.4 0.00 0.00 0.00 45 1017.4
20260503214600 25 135 0.0 4.8 0.00 0.00 0.00 46 1017.8
20260503213057 25 0 0.0 9.7 0.00 0.00 0.00 47 1017.7
20260503211554 26 166 0.0 4.8 0.00 0.00 0.00 46 1017.9
20260503210055 25 0 0.0 4.8 0.00 0.00 0.00 44 1018.2
20260503204554 26 0 1.6 4.8 0.00 0.00 0.00 44 1018.5
20260503203110 26 136 1.6 4.8 0.00 0.00 0.00 43 1018.6
20260503201556 25 0 1.6 6.4 0.00 0.00 0.00 43 1019.1
20260503200105 25 0 0.0 4.8 0.00 0.00 0.00 44 1019.2
20260503194557 26 0 1.6 6.4 0.00 0.00 0.00 42 1019.5
20260503193055 25 0 0.0 3.2 0.00 0.00 0.00 45 1019.9
20260503191556 25 205 1.6 4.8 0.00 0.00 0.00 47 1020.0
20260503190106 25 109 1.6 4.8 0.00 0.00 0.00 46 1020.4
20260503184602 25 0 0.0 4.8 0.00 0.00 0.00 46 1020.4
20260503183057 25 0 0.0 3.2 0.00 0.00 0.00 46 1020.6
20260503181602 25 0 0.0 6.4 0.00 0.00 0.00 46 1020.9
20260503180058 25 250 0.0 4.8 0.00 0.00 0.00 46 1021.0
20260503174554 25 205 0.0 4.8 0.00 0.00 0.00 51 1021.4
20260503173054 25 180 1.6 6.4 0.00 0.00 0.00 52 1021.7
20260503171601 24 199 0.0 4.8 0.00 0.00 0.00 52 1022.0
20260503100108 13 0 0.0 0.0 0.00 0.03 0.00 81 1019.9
20260503081600 15 0 0.0 0.0 0.00 0.03 0.00 72 1019.9
20260503071553 15 0 0.0 0.0 0.00 0.03 0.00 71 1020.2
20260503060116 16 0 0.0 0.0 0.00 0.03 0.00 70 1020.4
20260503054603 16 0 0.0 0.0 0.00 0.03 0.00 69 1020.3
20260503053053 16 0 0.0 0.0 0.00 0.03 0.00 67 1020.3
20260503051552 16 0 0.0 0.0 0.00 0.03 0.00 70 1020.3
20260503050055 16 0 0.0 0.0 0.00 0.03 0.00 72 1020.2
20260503044553 17 0 0.0 0.0 0.00 0.03 0.03 72 1020.3
20260503043053 17 0 0.0 0.0 0.00 0.03 0.03 70 1020.3
20260503041552 17 0 0.0 0.0 0.00 0.03 0.03 70 1020.1
20260503040052 17 0 0.0 0.0 0.00 0.03 0.03 69 1020.0
20260503034550 17 0 0.0 0.0 0.00 0.03 0.03 68 1019.9
20260503033106 18 0 0.0 0.0 0.00 0.03 0.03 67 1020.0
20260503031554 18 0 0.0 0.0 0.00 0.03 0.03 66 1019.7
20260503030054 18 0 0.0 0.0 0.00 0.03 0.03 64 1019.6
20260503024555 18 0 0.0 0.0 0.00 0.03 0.03 63 1019.6
20260503023102 19 0 0.0 0.0 0.00 0.03 0.03 61 1019.3